Flag for Moldova Weather past 2 weeks in Tiraspol, Moldova

Now
91 °F

Sunny.


Feels Like: 88 °F
Forecast: 71 / 98 °F
Wind: 9 mph from Northeast

Location: Chisinau International Airport

Current Time: Aug 4, 2015 at 3:54:59 PM

Latest Report: Aug 4, 2015 at 3:30 PM


Visibility: 10 mi

Pressure: 29.98 "Hg

Humidity: 20%

Dew point: 45 °F

Location of TiraspolLocation

Historic Weather in Tiraspol — Graph

°F

Tiraspol temperature yesterday

Maximum temperature yesterday: 88 °F (at 4:00 PM)
Minimum temperature yesterday: 55 °F (at 5:30 AM)
Average temperature yesterday: 74 °F

Past Weeks' High & Low Weather Summary

 TemperatureHumidityPressure
High97 °F (Jul 26, 1:30 PM)88% (Jul 31, 2:00 AM)30.24 "Hg (Jul 31, 2:00 AM)
Low52 °F (Aug 2, 4:30 AM)18% (Jul 25, 4:30 PM)29.62 "Hg (Jul 26, 3:00 PM)
Average78 °F48%29.91 "Hg
* Reported Jul 20 2:00 PM — Aug 4 2:30 PM, Tiraspol, Weather by CustomWeather, © 2015

Note: Actual official high and low records may vary slightly from our data, if they occured in-between our weather recording intervals... More about our weather records

Advertising

Tiraspol weather history for previous 24 hours

 ConditionsComfort  
Time TempWeatherWind HumidityBarometerVisibility
2:30 PM
Tue, Aug 4
90 °FPassing clouds.12 mph21%30.01 "HgN/A
2:00 PM91 °FPassing clouds.9 mph21%30.01 "HgN/A
1:30 PM90 °FPassing clouds.12 mph21%30.04 "HgN/A
1:00 PM90 °FPassing clouds.13 mph20%30.04 "HgN/A
12:30 PM90 °FSunny.13 mph21%30.04 "Hg10 mi
12:00 PM88 °FPassing clouds.12 mph25%30.04 "HgN/A
11:30 AM84 °FPassing clouds.10 mph31%30.04 "HgN/A
11:00 AM84 °FPassing clouds.10 mph31%30.07 "HgN/A
10:30 AM82 °FPassing clouds.7 mph32%30.07 "HgN/A
10:00 AM79 °FPassing clouds.8 mph39%30.07 "HgN/A
9:30 AM77 °FPassing clouds.7 mph44%30.07 "HgN/A
9:00 AM73 °FSunny.8 mph53%30.07 "Hg10 mi
8:30 AM72 °FSunny.9 mph57%30.07 "Hg10 mi
8:00 AM68 °FSunny.5 mph64%30.07 "Hg10 mi
7:30 AM66 °FPassing clouds.3 mph68%30.07 "HgN/A
7:00 AM64 °FSunny.5 mph73%30.07 "Hg10 mi
6:30 AM59 °FPassing clouds.3 mph82%30.07 "HgN/A
6:00 AM59 °FPassing clouds.3 mph77%30.07 "HgN/A
5:30 AM59 °FClear.1 mph82%30.07 "Hg10 mi
5:00 AM59 °FPassing clouds.3 mph77%30.07 "HgN/A
4:30 AM59 °FClear.8 mph77%30.07 "Hg10 mi
4:00 AM59 °FClear.2 mph82%30.07 "Hg10 mi
3:30 AM63 °FClear.No wind73%30.07 "Hg10 mi
3:00 AM66 °FClear.6 mph68%30.07 "Hg10 mi
2:30 AM64 °FPassing clouds.3 mph73%30.07 "HgN/A
2:00 AM64 °FClear.1 mph68%30.09 "Hg10 mi
1:00 AM70 °FClear.1 mph57%30.09 "Hg10 mi
12:30 AM66 °FClear.No wind64%30.09 "Hg10 mi
12:00 AM68 °FClear.2 mph60%30.09 "Hg10 mi
11:30 PM
Mon, Aug 3
68 °FClear.5 mph60%30.09 "Hg10 mi
11:00 PM70 °FClear.7 mph53%30.09 "Hg10 mi
10:30 PM75 °FClear.8 mph41%30.07 "Hg10 mi
10:00 PM77 °FClear.9 mph36%30.07 "Hg10 mi
9:30 PM79 °FSunny.8 mph32%30.07 "Hg10 mi
9:00 PM79 °FSunny.5 mph32%30.07 "Hg10 mi
8:30 PM84 °FPassing clouds.3 mph25%30.07 "HgN/A
8:00 PM84 °FClear.5 mph25%30.07 "Hg5 mi
7:30 PM86 °FPassing clouds.5 mph22%30.07 "HgN/A
7:00 PM86 °FPassing clouds.5 mph22%30.07 "HgN/A
6:30 PM86 °FSunny.2 mph22%30.07 "Hg10 mi
6:00 PM88 °FSunny.1 mph21%30.07 "Hg10 mi
5:30 PM88 °FPassing clouds.5 mph21%30.09 "HgN/A
5:00 PM88 °FSunny.5 mph22%30.09 "Hg10 mi
4:30 PM88 °FPassing clouds.5 mph22%30.09 "HgN/A
4:00 PM88 °FPassing clouds.3 mph22%30.09 "HgN/A
3:30 PM86 °FPassing clouds.6 mph25%30.09 "HgN/A
3:00 PM86 °FPassing clouds.5 mph24%30.12 "HgN/A
Weather by CustomWeather, © 2015

See weather overviewHow to use our weather pages